Regional Weather Roundup
Issued by NWS

Home | Current Version | Previous Version | Text Only | Print | Product List | Glossary Off
Versions: 1 2 3 4 5 6 7 8 9 10 11 12 13 14 15 16 17 18 19 20 21 22 23 24 25 26 27 28 29 30 31 32 33 34 35 36 37 38 39 40 41 42 43 44 45 46 47 48 49 50

000
ASUS43 KLSX 182007
RWRMO

WEATHER SUMMARY FOR MISSOURI
NATIONAL WEATHER SERVICE SPRINGFIELD MO
300 PM CDT MON SEP 18 2017

NOTE: "FAIR" INDICATES FEW OR NO CLOUDS BELOW 12,000 FEET WITH NO
       SIGNIFICANT WEATHER AND/OR OBSTRUCTIONS TO VISIBILITY.
       CURRENT SKY AND/OR WEATHER CONDITIONS ARE NOT AVAILABLE FOR
       CHILLICOTHE AND FARMINGTON.

MOZ001>031-035>038-043-044-053-054-182100-
...NORTHERN AND WESTERN MISSOURI...

CITY           SKY/WX    TMP DP  RH WIND       PRES   REMARKS
KANSAS CTY INT CLOUDY    72  69  90 S10       29.96F
KANSAS C DTWN  CLOUDY    74  69  85 S7        29.95F
LEE`S SUMMIT   CLOUDY    70  69  97 S8        29.97F
ST JOSEPH      CLOUDY    75  69  81 SW6       29.95F
CHILLICOTHE      N/A     71  70  96 SE6       29.97F
KIRKSVILLE     CLOUDY    75  67  76 VRB5      30.00F

$$
MOZ066>068-077>081-088>096-101>105-182100-
...SOUTHWEST MISSOURI...

CITY           SKY/WX    TMP DP  RH WIND       PRES   REMARKS
SPRINGFIELD    LGT RAIN  76  70  82 SW3       30.00F
JOPLIN         CLOUDY    77  71  82 VRB5      29.99F
BRANSON        CLOUDY    81  66  61 W3        30.01F

$$
MOZ032>034-039>042-045>050-055>058-069>072-182100-
...CENTRAL MISSOURI...

CITY           SKY/WX    TMP DP  RH WIND       PRES   REMARKS
COLUMBIA       TSTM      69  68  96 SW26G35   30.00R VSB 1/4
JEFFERSON CITY TSTM      75  71  87 W8G21     29.95S FOG
ROLLA          CLOUDY    77  71  82 S13       29.99F
SEDALIA        LGT RAIN  72  72 100 W10       30.02R FOG
WHITEMAN AFB   TSTM      68  68 100 SE3       29.99S FOG
WARRENSBURG    PTSUNNY   68  64  88 SE7       29.99F
OSAGE BEACH    TSTM      72  70  93 NW5       29.98F FOG

$$
MOZ051-052-059>065-182100-
...EAST CENTRAL MISSOURI...

CITY           SKY/WX    TMP DP  RH WIND       PRES   REMARKS
ST LOUIS INTL  CLOUDY    83  68  60 S9        29.98F
SPIRIT OF STL  CLOUDY    83  70  64 S6        29.97F
ST CHARLES     CLOUDY    84  65  52 S9        29.96F

$$
MOZ072>076-082>087-097>100-106>115-182100-
...SOUTH CENTRAL AND SOUTHEAST MISSOURI...

CITY           SKY/WX    TMP DP  RH WIND       PRES   REMARKS
CAPE GIRARDEAU MOSUNNY   88  68  51 W7        29.97F HX  91
FARMINGTON     LGT RAIN  76  69  79 SW6       30.02F
POPLAR BLUFF   CLOUDY    88  71  57 W9        29.98F HX  94
WEST PLAINS    PTSUNNY   77  69  76 VRB3      30.03F

$$



USA.gov is the U.S. government's official web portal to all federal, state and local government web resources and services.